Tracking 19634 objects as of 21-May-2019
HD Live streaming from Space Station
objects crossing your sky now

TIROS 1

Track TIROS 1 now!
10-day predictions
TIROS 1 is classified as:


NORAD ID: 29
Int'l Code: 1960-002B
Perigee: 637.5 km
Apogee: 671.5 km
Inclination: 48.4 °
Period: 97.7 minutes
Semi major axis: 7025 km
RCS: 0.8537 m2 (medium)
Launch date: April 1, 1960
Source: United States (US)
Launch site: AIR FORCE EASTERN TEST RANGE (AFETR)
aabbcc
Your satellite tracking list
Your tracking list is empty




NASA's NSSDC Master Catalog

Two Line Element Set (TLE):
1    29U 60002B   19140.90979856 -.00000138 +00000-0 +10553-4 0  9998
2    29 048.3810 005.7939 0024227 347.9008 012.1319 14.74304053160474
Source of the keplerian elements: AFSPC